[[{"header":{"parameterUnit":"m.s-1","parameterCategory":1,"la1":30.2991,"la2":30.254,"lo1":-89.0895,"lo2":-89.0444,"dy":0.0017,"dx":0.0017,"nx":28,"ny":28,"refTime":"2025-11-15T03:00:00:Z","depth":0,"parameterNumber":2,"parameterNumberName":"U-component_of_WINDS"},"data":[0,0,0,0,0,0,0,0,0,0,0,0,0,0,0,0,0,0,0,0,0,0,0,0,0,0,0,0,0,0,0,0,0,0,0,0,0,0,0,0,0,0,0,0,0,0,0,0,0,0,0,0,0,0,0,0,0,0,1.8177,1.8177,0,1.8224,1.8224,1.8225,1.8179,1.8177,1.8176,1.8174,1.8224,1.8226,1.8229,0,0,0,0,0,0,0,0,0,0,0,0,0,1.8049,1.8052,1.8177,1.8177,1.8178,1.8224,1.8224,1.8225,1.8179,1.8177,1.8175,1.8173,1.8223,1.8226,1.823,0,0,0,0,0,0,0,0,0,0,0,0,0,1.8101,1.8053,1.8177,1.8161,1.816,1.8223,1.8224,1.8225,1.818,1.8177,1.8174,1.8172,1.8221,1.8226,1.823,1.8313,0,0,1.8244,1.8246,0,0,0,0,0,0,0,0,1.8099,1.8106,1.8162,1.8162,1.8161,1.8193,1.8198,1.8254,1.8181,1.8172,1.8174,1.8171,1.8216,1.822,1.8235,1.8315,1.8317,1.8244,1.8247,1.8249,1.825,0,0,0,0,0,0,0,1.8095,1.8104,1.8195,1.8163,1.8162,1.8152,1.8156,1.8208,1.8209,1.8173,1.817,1.8176,1.8215,1.8231,1.8236,1.8318,1.8244,1.8248,1.8251,1.8253,1.8468,1.8471,0,0,0,0,0,0,1.8093,1.8101,1.8194,1.8197,1.8122,1.8156,1.8161,1.8185,1.8208,1.8209,1.8178,1.8173,1.8225,1.8231,1.8238,1.8336,1.8249,1.8253,1.8256,1.8465,1.8469,1.8472,0,0,0,0,0,0,1.809,1.8102,1.8192,1.8148,1.8159,1.8161,1.8189,1.8188,1.8204,1.8212,1.8212,1.8194,1.8223,1.8231,1.8294,1.8337,1.8255,1.8259,1.8462,1.8466,1.8471,1.8533,0,0,0,0,0,0,1.8087,1.8101,1.8132,1.8149,1.8161,1.8247,1.8191,1.8191,1.8212,1.8206,1.8227,1.8228,1.8221,1.8288,1.8299,1.8342,1.8263,1.8458,1.8464,1.8469,1.8527,1.8539,1.8549,0,0,0,0,0,1.8082,1.8148,1.8133,1.8145,1.82,1.825,1.8257,1.8247,1.8215,1.8247,1.8252,1.8228,1.8331,1.8295,1.8307,1.8352,1.8455,1.8462,1.8469,1.8522,1.8537,1.8549,0,0,0,0,0,0,1.8135,1.8149,1.8134,1.8206,1.8227,1.8242,1.8281,1.8263,1.8293,1.8287,1.8274,1.8279,1.8346,1.8355,1.8315,1.8433,1.8388,1.8397,1.8424,1.8438,1.8449,1.8445,1.8267,0,0,0,0,0,1.8155,1.8194,1.8205,1.8268,1.8279,1.8279,1.83,1.8291,1.8312,1.832,1.833,1.8352,1.839,1.8414,1.8449,1.8528,1.8533,1.8565,1.8576,1.8585,1.8594,1.8637,1.8652,1.8494,1.8494,1.8494,0,0,1.8197,1.821,1.8235,1.8279,1.8294,1.8335,1.8286,1.8332,1.8362,1.8328,1.8387,1.8396,1.842,1.8491,1.8523,1.8501,1.8638,1.8594,1.8601,1.8605,1.8645,1.866,1.8673,1.8499,1.8498,1.8497,0,0,1.8294,1.8308,1.8362,1.8378,1.8401,1.8401,1.8414,1.8432,1.8436,1.8496,1.8471,1.8507,1.8572,1.859,1.8608,1.8713,1.8692,1.8725,1.8783,1.8825,1.8837,1.8848,1.8886,1.89,1.8733,1.8733,1.8734,0,1.8343,1.8404,1.8392,1.844,1.846,1.843,1.8485,1.8502,1.8536,1.8551,1.8525,1.8606,1.862,1.8695,1.8721,1.8737,1.8752,1.8722,1.8836,1.8847,1.8857,1.8893,1.8907,1.8737,1.8737,1.8736,1.8736,0,1.8463,1.8506,1.8547,1.858,1.8605,1.8656,1.8653,1.868,1.8669,1.8671,1.8733,1.8749,1.8787,1.8804,1.8794,1.8879,1.8864,1.8838,1.8792,1.8876,1.891,1.8924,1.8743,1.8741,1.874,1.8739,0,0,1.8594,1.8621,1.8636,1.8651,1.8675,1.8708,1.8758,1.8795,1.8818,1.8843,1.8885,1.8941,1.8917,1.8937,1.8929,1.8966,1.9049,1.8935,1.8936,1.8956,1.9145,1.9164,1.918,1.9036,1.9038,1.904,1.9143,0,1.8692,1.8779,1.877,1.8853,1.8892,1.8865,1.8909,1.893,1.8934,1.8968,1.8973,1.9013,1.8978,1.899,1.9025,1.9032,1.9087,1.9024,1.9075,1.9077,1.907,1.9198,1.9218,1.9314,1.9156,1.9158,1.9159,0,1.8817,1.8846,1.8933,1.8952,1.8968,1.9008,1.9041,1.9074,1.9097,1.9097,1.9121,1.9106,1.9158,1.9112,1.9183,1.914,1.9161,1.9168,1.9171,1.9175,1.9123,1.9205,1.9344,1.9358,1.918,1.9178,1.9177,0,1.8904,1.8965,1.9025,1.9038,1.9062,1.909,1.9102,1.9122,1.9144,1.9174,1.9189,1.9224,1.9244,1.9272,1.9268,1.9234,1.9341,1.9294,1.9343,1.9343,1.9366,1.9364,1.9509,1.938,1.9379,1.9379,1.9379,0,1.9014,1.9068,1.9064,1.9101,1.9161,1.9151,1.9211,1.9219,1.9237,1.9276,1.9255,1.9292,1.9284,1.9321,1.9319,1.9378,1.9387,1.9389,1.9388,1.9391,1.9391,1.9404,1.9397,1.9383,1.9382,1.9381,1.9381,0,1.912,1.912,1.9183,1.9201,1.9206,1.925,1.9265,1.93,1.9303,1.9352,1.9363,1.9367,1.941,1.9409,1.9457,1.9455,1.9528,1.9519,1.9521,1.9519,1.9567,1.9563,1.9726,1.9747,1.9604,1.9605,1.9607,0,1.919,1.9231,1.9253,1.9277,1.929,1.933,1.9353,1.9345,1.9371,1.94,1.9432,1.9472,1.9504,1.9573,1.9581,1.9618,1.961,1.9665,1.9615,1.9618,1.9611,1.9608,1.9612,1.9674,1.9676,1.9677,1.9678,0,1.9315,1.9313,1.9347,1.9381,1.941,1.9436,1.9461,1.9482,1.9478,1.9507,1.955,1.9575,1.9624,1.9665,1.9701,1.9713,1.9695,1.9694,1.9707,1.971,1.9709,1.971,1.9547,1.969,1.9689,1.9688,1.9687,1.9687,1.9405,1.944,1.9461,1.95,1.9518,1.9542,1.9576,1.9583,1.9619,1.9658,1.9652,1.97,1.9723,1.9769,1.9785,1.9823,1.9803,1.9823,1.9827,1.9832,1.9837,1.9704,1.9829,1.9829,1.9829,1.9828,1.9828,0,1.9528,1.954,1.9576,1.9611,1.9643,1.9623,1.965,1.9677,1.972,1.9742,1.9774,1.9824,1.9864,1.9875,1.9913,1.9942,1.9935,1.9952,1.995,1.9953,1.9853,1.9837,1.9957,1.9957,1.9957,1.9957,1.9957,1.9957,1.9595,1.9654,1.9655,1.9723,1.9735,1.9782,1.9799,1.9821,1.9839,1.9896,1.9928,1.9935,1.9954,1.9994,2.0029,2.0032,2.0047,2.0068,2.0067,1.9973,1.996,1.9947,1.9933,2.0071,2.0071,2.0164,2.0165,2.0165]},{"header":{"parameterUnit":"m.s-1","parameterCategory":1,"la1":30.2991,"la2":30.254,"lo1":-89.0895,"lo2":-89.0444,"dy":0.0017,"dx":0.0017,"nx":28,"ny":28,"refTime":"2025-11-15T03:00:00:Z","depth":0,"parameterNumber":3,"parameterNumberName":"V-component_of_WINDS"},"data":[0,0,0,0,0,0,0,0,0,0,0,0,0,0,0,0,0,0,0,0,0,0,0,0,0,0,0,0,0,0,0,0,0,0,0,0,0,0,0,0,0,0,0,0,0,0,0,0,0,0,0,0,0,0,0,0,0,0,0.9394,0.9394,0,0.9446,0.9446,0.9447,0.9433,0.9432,0.9431,0.943,0.9481,0.9484,0.9486,0,0,0,0,0,0,0,0,0,0,0,0,0,0.9279,0.9281,0.9394,0.9394,0.9395,0.9446,0.9446,0.9447,0.9433,0.9432,0.9431,0.943,0.9481,0.9483,0.9486,0,0,0,0,0,0,0,0,0,0,0,0,0,0.933,0.9282,0.9393,0.9394,0.9395,0.9445,0.9446,0.9447,0.9433,0.9432,0.943,0.9429,0.948,0.9483,0.9486,0.9539,0,0,0.9497,0.9499,0,0,0,0,0,0,0,0,0.9327,0.9334,0.9393,0.9394,0.9395,0.9431,0.9425,0.9478,0.9434,0.9419,0.943,0.9428,0.9466,0.947,0.9483,0.9541,0.9544,0.9497,0.95,0.9501,0.9502,0,0,0,0,0,0,0,0.9323,0.9332,0.9414,0.9394,0.9395,0.9391,0.9396,0.9435,0.945,0.942,0.9419,0.9425,0.9466,0.948,0.9485,0.9544,0.9497,0.95,0.9503,0.9504,0.9647,0.9648,0,0,0,0,0,0,0.932,0.9329,0.9412,0.9416,0.9356,0.9394,0.94,0.9421,0.945,0.9453,0.9427,0.9425,0.9475,0.948,0.9486,0.9549,0.9501,0.9504,0.9506,0.9645,0.9647,0.9649,0,0,0,0,0,0,0.9317,0.9327,0.941,0.9372,0.9382,0.9398,0.9421,0.9423,0.9437,0.9455,0.9457,0.9439,0.9474,0.9481,0.9526,0.9551,0.9506,0.9509,0.9643,0.9646,0.9648,0.9676,0,0,0,0,0,0,0.9314,0.9327,0.9348,0.9373,0.9384,0.945,0.9423,0.9425,0.9444,0.9441,0.9467,0.947,0.9473,0.9521,0.9529,0.9555,0.9512,0.9641,0.9644,0.9647,0.9673,0.9679,0.9684,0,0,0,0,0,0.931,0.9353,0.9349,0.9359,0.9411,0.9452,0.9458,0.9462,0.9446,0.9466,0.9477,0.9469,0.9546,0.9525,0.9535,0.9562,0.9639,0.9643,0.9647,0.967,0.9678,0.9684,0,0,0,0,0,0,0.933,0.9356,0.9352,0.9405,0.9426,0.9449,0.9476,0.947,0.9497,0.9493,0.9496,0.9502,0.9548,0.9559,0.9535,0.9613,0.959,0.9596,0.9605,0.9612,0.9618,0.9614,0.9515,0,0,0,0,0,0.9341,0.9372,0.9393,0.9438,0.9449,0.946,0.9478,0.9479,0.9501,0.951,0.9525,0.9546,0.9575,0.9594,0.9622,0.9674,0.9679,0.9697,0.9702,0.9707,0.9712,0.974,0.9748,0.9661,0.9661,0.9661,0,0,0.9363,0.9381,0.9401,0.9442,0.9459,0.949,0.9468,0.9503,0.9526,0.9515,0.9558,0.9569,0.9593,0.9641,0.9663,0.9652,0.9737,0.9712,0.9716,0.9718,0.9744,0.9752,0.976,0.9664,0.9663,0.9663,0,0,0.942,0.9437,0.9475,0.9492,0.9518,0.9525,0.9535,0.9559,0.9566,0.9609,0.9601,0.9628,0.9678,0.9695,0.971,0.9772,0.9764,0.978,0.9811,0.9837,0.9844,0.985,0.9872,0.9879,0.9785,0.9785,0.9786,0,0.9444,0.9492,0.9496,0.9531,0.9549,0.9541,0.9579,0.9595,0.9628,0.964,0.9627,0.9689,0.9705,0.9756,0.9771,0.9784,0.9794,0.9778,0.9843,0.9849,0.9855,0.9875,0.9883,0.9787,0.9787,0.9787,0.9787,0,0.952,0.9554,0.9581,0.9614,0.9635,0.9671,0.9679,0.97,0.9699,0.9707,0.975,0.9768,0.9799,0.9811,0.981,0.9862,0.9854,0.9842,0.9819,0.9865,0.9884,0.9892,0.979,0.9789,0.9789,0.9788,0,0,0.9592,0.9625,0.9636,0.965,0.9677,0.9702,0.9738,0.9768,0.9785,0.9808,0.9837,0.9879,0.9868,0.9885,0.9886,0.9909,0.9955,0.9894,0.9894,0.9904,1.0013,1.0022,1.0031,0.995,0.9952,0.9953,1.0011,0,0.9651,0.9714,0.9718,0.9775,0.9805,0.9797,0.9828,0.9847,0.9855,0.9881,0.989,0.9919,0.9902,0.9912,0.9935,0.9945,0.9977,0.9941,0.9977,0.9978,0.9972,1.0041,1.0051,1.0105,1.0018,1.002,1.0021,0,0.9728,0.9754,0.9814,0.9836,0.9849,0.9876,0.9904,0.9929,0.995,0.9954,0.9973,0.997,1.0005,0.998,1.0028,1.0003,1.0017,1.0024,1.0026,1.003,1.0002,1.0047,1.0122,1.013,1.0032,1.0032,1.0031,0,0.9774,0.9823,0.9866,0.9878,0.9905,0.9924,0.9936,0.9956,0.9973,0.9997,1.0008,1.0035,1.005,1.0071,1.0075,1.0056,1.0122,1.0098,1.0126,1.0126,1.014,1.0139,1.0219,1.015,1.0149,1.0149,1.0149,0,0.984,0.9877,0.9887,0.9913,0.9953,0.9956,0.9996,1.0007,1.0024,1.0051,1.0045,1.007,1.0073,1.0099,1.0102,1.0141,1.0147,1.0151,1.0151,1.0152,1.0151,1.0162,1.0158,1.0151,1.0151,1.015,1.015,0,0.9898,0.9907,0.9952,0.9973,0.9979,1.0008,1.0026,1.005,1.0057,1.0091,1.0099,1.011,1.014,1.0146,1.0181,1.0182,1.0228,1.0225,1.0222,1.0221,1.0249,1.0246,1.0339,1.0351,1.0273,1.0273,1.0274,0,0.994,0.9968,0.9992,1.001,1.0023,1.0052,1.007,1.0073,1.0092,1.0118,1.0139,1.0168,1.0191,1.0239,1.0249,1.0276,1.0273,1.0303,1.0277,1.0276,1.0273,1.0271,1.0274,1.0308,1.0309,1.031,1.0311,0,1.0012,1.0015,1.0041,1.0069,1.0091,1.0113,1.0134,1.0148,1.0154,1.0175,1.0206,1.0224,1.026,1.0289,1.0315,1.0325,1.0319,1.0319,1.0327,1.0327,1.0324,1.0326,1.0236,1.0317,1.0316,1.0316,1.0315,1.0315,1.0064,1.0088,1.0109,1.0138,1.0154,1.0174,1.0197,1.0207,1.0233,1.0263,1.0263,1.0296,1.0315,1.0349,1.0361,1.0387,1.0377,1.0388,1.0391,1.0394,1.0397,1.032,1.0391,1.0391,1.0391,1.0391,1.0391,0,1.0136,1.0148,1.0176,1.0205,1.0228,1.022,1.0242,1.0261,1.0291,1.0309,1.0333,1.0367,1.0395,1.0407,1.0433,1.0451,1.0449,1.0458,1.0457,1.0459,1.0404,1.0395,1.046,1.046,1.046,1.046,1.046,1.046,1.0176,1.0217,1.0221,1.027,1.0282,1.0315,1.0328,1.0345,1.036,1.0399,1.0422,1.043,1.0445,1.0473,1.0497,1.05,1.051,1.0521,1.0522,1.047,1.0463,1.0457,1.0448,1.0523,1.0523,1.0575,1.0576,1.0576]}]]